Location: *
(48.8667°N, 2.3331°E)
Time: 17:56:16
(UTC+00:00)

SPOT 3 Rocket - Pass Details

Date: 09 April 2020
Orbit: 778 x 795 km, 98.8° (Epoch: 25 May)

Event Time Altitude Azimuth Distance (km) Brightness Sun altitude
Exits shadow 19:22:44 - 150° (SSE) 2,939 6.0 -8.4°
Reaches altitude 10° 19:24:12 10° 147° (SSE) 2,356 5.5 -8.7°
Maximum altitude 19:29:18 58° 70° (ENE) 920 3.7 -9.4°
Drops below altitude 10° 19:34:25 10° 352° (N) 2,363 6.5 -10.2°
Sets 19:36:46 0° 349° (NNW) 3,294 7.3 -10.5°
